Погода в Акуличах

Россия / Брянская область     53°11′24″N   33°13′10″E
темп.,
°C
ветер,
м/с
пор.,
м/с
влажн.,
%
обл.,
%
осадки,
мм/ч
давл.,
гПа
погр.,
м
12 мая, ср
ср1200:00+11вюв411947 0.0 1023448
03:00+7вюв3119391 0.0 1024356
06:00+6в39920 0.0 1025312
09:00+11вюв47702 0.0 1024654
12:00+15в565461 0.0 10221469
15:00+16всв5747100 0.0 10192176
18:00+13всв4567100 0.1 10181051
21:00+8в378730 0.2 1017167
13 мая, чт
чт1300:00+7всв3897100 0.0 1015201
03:00+7в41097100 0.8 1013412
06:00+8вюв51095100 6.7 1014681
09:00+9юв698489 6.8 1014823
12:00+10ююв5775100 0.1 10141115
15:00+14ююв5759100 0.3 10131621
18:00+13ююв467028 0.1 1013985
21:00+8юв38895 0.1 1014153
14 мая, пт
пт1400:00+7юв389036 0.0 1014140
03:00+9вюв41081100 0.0 1014240
06:00+9вюв41083100 0.0 1014272
09:00+10в3991100 0.3 1012310
12:00+19юв697171 0.0 10101171
15:00+20ю587482 1.7 10091219
18:00+19ю478163 2.1 1009747
21:00+14ююв35937 2.3 100888
15 мая, сб
сб1500:00+13ююв35955 0.0 100996
03:00+11ю22955 0.0 100829
06:00+12ю269621 0.1 1008144
09:00+16ююз358236 0.1 1008533
12:00+19юз467224 2.1 10091090
15:00+18зюз567768 5.6 10091056
18:00+16зюз38811 1.0 1010520
21:00+12юз37915 1.1 1011151
16 мая, вс
вс1600:00+10ююз39945 0.0 1011186
03:00+9ююз36965 0.0 1012122
06:00+9ююз26965 0.0 1013173
09:00+15ююз35744 0.0 1014613
12:00+19юз34589 0.0 10141198
15:00+21ююз235249 0.0 10131582
18:00+20ююв2362100 0.0 10131325
21:00+15юв2282100 0.0 101421